Umea, Sweden

2:00 AM CET on December 11, 2017 (GMT +0100)
Umea

Weather History for ESNU - September, 2013

Change the Weather History Date:

Tuesday, September 17, 2013

  Actual Average Record
Temperature  
Mean Temperature 56 °F -  
Max Temperature 60 °F - - ()
Min Temperature 53 °F - - ()
Degree Days  
Heating Degree Days 8    
Growing Degree Days 6 (Base 50)    
Moisture  
Dew Point 50 °F    
Average Humidity 80    
Maximum Humidity 94    
Minimum Humidity 67    
Precipitation  
Precipitation 0.00 in - - ()
Sea Level Pressure  
Sea Level Pressure 29.61 in    
Wind  
Wind Speed 10 mph ()    
Max Wind Speed 15 mph    
Max Gust Speed -    
Visibility 5.7 miles    
Events Rain    
T = Trace of Precipitation, MM = Missing Value Source: Averaged Metar Reports

Daily Weather History Graph

Daily Weather History Graph

Search for Another Location

Airport or City:

Trip Planner

Search our weather history database for the weather conditions in past years. The results will help you decide how hot, cold, wet, or windy it might be!

Date:

Astronomy

Sep. 17, 2013 Rise Set
Actual Time 6:07 AM CEST 6:57 PM CEST
Civil Twilight 5:19 AM CEST 7:44 PM CEST
Nautical Twilight 4:19 AM CEST 8:44 PM CEST
Astronomical Twilight 3:08 AM CEST 9:54 PM CEST
Moon 5:54 PM CEST (9/17) 3:05 AM CEST (9/17)
Length of Visible Light 14h 25m
Length of Day
12h 49m
Waxing Gibbous, 94% of the Moon is Illuminated
Sep 17
Waxing Gibbous
Sep 19
Full
Sep 27
Last Quarter
Oct 5
New
Oct 12
First Quarter

Hourly Weather History & Observations

Time (CEST) Temp. Dew Point Humidity Pressure Visibility Wind Dir Wind Speed Gust Speed Precip Events Conditions
12:20 AM 55.4 °F 48.2 °F 77% 29.59 in 6.2 mi ESE 15.0 mph - N/A   Light Drizzle
12:50 AM 55.4 °F 50.0 °F 82% 29.59 in 6.2 mi ESE 12.7 mph - N/A Rain Light Rain
1:20 AM 53.6 °F 50.0 °F 88% 29.59 in 4.3 mi ESE 10.4 mph - N/A   Drizzle
1:50 AM 53.6 °F 50.0 °F 88% 29.59 in 4.3 mi ESE 8.1 mph - N/A Rain Rain
2:20 AM 53.6 °F 50.0 °F 88% 29.59 in 3.1 mi East 8.1 mph - N/A Rain Light Rain
2:50 AM 53.6 °F 50.0 °F 88% 29.59 in 5.6 mi East 8.1 mph - N/A   Drizzle
3:20 AM 53.6 °F 50.0 °F 88% 29.59 in 4.3 mi East 6.9 mph - N/A Rain Rain
3:50 AM 53.6 °F 50.0 °F 88% 29.59 in 5.6 mi ESE 9.2 mph - N/A Rain Rain
4:22 AM 53.6 °F 50.0 °F 88% 29.59 in 6.2 mi ESE 10.4 mph - N/A Rain Light Rain
4:50 AM 53.6 °F 50.0 °F 88% 29.59 in 6.2 mi ESE 10.4 mph - N/A   Light Drizzle
5:20 AM 53.6 °F 50.0 °F 88% 29.59 in 3.1 mi ESE 10.4 mph - N/A Rain Light Rain
5:50 AM 53.6 °F 50.0 °F 88% 29.59 in 4.3 mi ESE 10.4 mph - N/A   Drizzle
6:20 AM 53.6 °F 50.0 °F 88% 29.59 in 5.0 mi ESE 11.5 mph - N/A Rain Light Rain
6:50 AM 53.6 °F 50.0 °F 88% 29.59 in 3.7 mi ESE 11.5 mph - N/A Rain Light Rain
7:20 AM 53.6 °F 50.0 °F 88% 29.59 in 3.7 mi ESE 11.5 mph - N/A Rain Light Rain
7:50 AM 53.6 °F 50.0 °F 88% 29.59 in 6.2 mi ESE 11.5 mph - N/A   Overcast
8:20 AM 53.6 °F 51.8 °F 94% 29.59 in 6.2 mi ESE 11.5 mph - N/A   Overcast
8:50 AM 53.6 °F 51.8 °F 94% 29.59 in 6.2 mi ESE 11.5 mph - N/A   Overcast
9:20 AM 53.6 °F 50.0 °F 88% 29.62 in 6.2 mi ESE 12.7 mph - N/A   Mostly Cloudy
9:50 AM 53.6 °F 50.0 °F 88% 29.62 in 6.2 mi ESE 12.7 mph - N/A   Mostly Cloudy
10:20 AM 55.4 °F 50.0 °F 82% 29.62 in 6.2 mi ESE 11.5 mph - N/A   Mostly Cloudy
10:50 AM 55.4 °F 51.8 °F 88% 29.62 in 6.2 mi ESE 10.4 mph - N/A   Overcast
11:20 AM 57.2 °F 51.8 °F 82% 29.62 in 6.2 mi ESE 10.4 mph - N/A   Mostly Cloudy
11:50 AM 57.2 °F 51.8 °F 82% 29.62 in 6.2 mi ESE 11.5 mph - N/A   Mostly Cloudy
12:20 PM 57.2 °F 51.8 °F 82% 29.62 in 6.2 mi ESE 12.7 mph - N/A   Mostly Cloudy
12:50 PM 57.2 °F 50.0 °F 77% 29.62 in 6.2 mi ESE 12.7 mph - N/A   Mostly Cloudy
1:20 PM 59.0 °F 50.0 °F 72% 29.62 in 6.2 mi ESE 11.5 mph - N/A   Mostly Cloudy
1:50 PM 59.0 °F 50.0 °F 72% 29.62 in 6.2 mi ESE 12.7 mph - N/A   Mostly Cloudy
2:20 PM 59.0 °F 50.0 °F 72% 29.62 in 6.2 mi ESE 10.4 mph - N/A   Overcast
2:50 PM 59.0 °F 50.0 °F 72% 29.62 in 6.2 mi ESE 10.4 mph - N/A   Overcast
3:20 PM 59.0 °F 50.0 °F 72% 29.62 in 6.2 mi ESE 10.4 mph - N/A   Overcast
3:50 PM 59.0 °F 50.0 °F 72% 29.62 in 6.2 mi ESE 10.4 mph - N/A   Mostly Cloudy
4:20 PM 60.8 °F 50.0 °F 68% 29.62 in 6.2 mi East 11.5 mph - N/A   Mostly Cloudy
4:50 PM 59.0 °F 50.0 °F 72% 29.62 in 6.2 mi ESE 11.5 mph - N/A   Overcast
5:20 PM 59.0 °F 50.0 °F 72% 29.62 in 6.2 mi ESE 10.4 mph - N/A   Overcast
5:50 PM 59.0 °F 50.0 °F 72% 29.62 in 6.2 mi East 9.2 mph - N/A   Overcast
6:20 PM 59.0 °F 48.2 °F 67% 29.62 in 6.2 mi East 10.4 mph - N/A   Overcast
6:50 PM 59.0 °F 48.2 °F 67% 29.62 in 6.2 mi ESE 12.7 mph - N/A   Mostly Cloudy
7:20 PM 59.0 °F 48.2 °F 67% 29.62 in 6.2 mi ESE 13.8 mph - N/A   Overcast
7:50 PM 59.0 °F 48.2 °F 67% 29.62 in 6.2 mi ESE 12.7 mph - N/A   Overcast
8:20 PM 59.0 °F 48.2 °F 67% 29.62 in 6.2 mi ESE 12.7 mph - N/A Rain Light Rain
8:50 PM 57.2 °F 50.0 °F 77% 29.62 in 6.2 mi East 13.8 mph - N/A Rain Light Rain
9:20 PM 57.2 °F 50.0 °F 77% 29.62 in 6.2 mi East 13.8 mph - N/A Rain Light Rain
9:50 PM 57.2 °F 50.0 °F 77% 29.62 in 6.2 mi East 11.5 mph - N/A Rain Light Rain
10:20 PM 57.2 °F 50.0 °F 77% 29.62 in - East 10.4 mph - N/A   Clear
10:50 PM 57.2 °F 50.0 °F 77% 29.62 in - East 10.4 mph - N/A   Clear
11:20 PM 57.2 °F 48.2 °F 72% 29.62 in - East 11.5 mph - N/A   Clear
11:50 PM 57.2 °F 48.2 °F 72% 29.62 in - East 11.5 mph - N/A   Clear